Regional Weather Roundup
Issued by NWS

Home | Current Version | Previous Version | Text Only | Print | Product List | Glossary Off
Versions: 1 2 3 4 5 6 7 8 9 10 11 12 13 14 15 16 17 18 19 20 21 22 23 24 25 26 27 28 29 30 31 32 33 34 35 36 37 38 39 40 41 42 43 44 45 46 47 48 49 50

000
ASUS43 KLOT 061503
RWRIL

ILLINOIS REGIONAL WEATHER ROUNDUP
NATIONAL WEATHER SERVICE CHICAGO/ROMEOVILLE IL
1000 AM CDT FRI MAY 06 2016

NOTE: "FAIR" INDICATES FEW OR NO CLOUDS BELOW 12,000 FEET WITH NO
SIGNIFICANT WEATHER AND/OR OBSTRUCTIONS TO VISIBILITY.

* THESE STATIONS ARE NOT UNDER NWS QUALITY CONTROL. THEY ALSO MAY NOT
  REPORT WEATHER SUCH AS PRECIPITATION OR FOG.

ILZ001-002-007-009-015-016-024-061600-
NORTHWEST ILLINOIS

CITY           SKY/WX    TMP DP  RH WIND       PRES   REMARKS
MOLINE         MOSUNNY   68  42  38 W7        30.00F
STERLING*      SUNNY     64  46  52 W12       30.00F
$$

ILZ003-004-008-010-011-017-018-061600-
NORTH CENTRAL ILLINOIS

CITY           SKY/WX    TMP DP  RH WIND       PRES   REMARKS
ROCKFORD       MOSUNNY   67  42  40 SW9       30.00F
FREEPORT*      MOSUNNY   64  44  47 SW10      30.00F
ROCHELLE*      MOSUNNY   66  42  40 SW14      30.01S
DE KALB*       PTSUNNY   65  43  43 W13       30.00F
$$

ILZ005-006-012>014-019>023-061600-
NORTHEAST ILLINOIS

CITY           SKY/WX    TMP DP  RH WIND       PRES   REMARKS
CHICAGO-OHARE  PTSUNNY   63  41  44 SW7       29.98F
CHICAGO-MIDWAY PTSUNNY   65  40  39 W7        29.99F
AURORA         CLOUDY    67  43  41 W12       30.00F
LANSING*       MOSUNNY   66  42  42 W8        30.01S
WAUKEGAN       CLOUDY    64  43  46 SW9       29.96F
DUPAGE AIRPORT CLOUDY    67  44  43 W13       29.98F
WHEELING       SUNNY     65  41  41 SW5       29.99F
NORTHERLY ISL    N/A     64  33  31 W12         N/A
NORTHERLY ISL    N/A     64  33  31 W12         N/A
$$

LMZ740>746-061600-
SOUTHERN LAKE MICHIGAN

STATION/POSITION SKY/WX   TEMP    WIND        PRES    VSBY  WAVE
                          AIR SEA DIR/SP/G                  HT/PER
                          (F)     (DEG/KT/KT) (MB)    (MI)  (FT/S)
WILMETTE HARBOR            53 44  280/  4/  4   N/A           1/ 5
HARRISON CRIB              60     270/  5/  7   N/A
BURNHAM HARBOR             66     250/  4/ 12   N/A
CALUMET HARBOR             62     240/  4/  6 1015.3R
BURNS HARBOR               56     230/  6/  7 1016.6S
MICHIGAN CITY              54     200/  5/  6   N/A
$$

ILZ025>027-034>036-040-047-049-050-058-095>099-061600-
WEST-CENTRAL ILLINOIS

CITY           SKY/WX    TMP DP  RH WIND       PRES   REMARKS
QUINCY         SUNNY     65  43  44 SW9       30.05F
MACOMB*        SUNNY     67  39  35 W12       30.06F
PITTSFIELD*    SUNNY     66  42  41 W8        30.08F
$$

ILZ028>032-037-038-041>044-048-051>054-059>061-061600-
CENTRAL ILLINOIS

CITY           SKY/WX    TMP DP  RH WIND       PRES   REMARKS
BLOOMINGTON    CLOUDY    63  44  49 W10       30.05F
DECATUR        CLOUDY    63  43  48 W10       30.06S
PEORIA         MOSUNNY   66  39  37 W9        30.04F
SPRINGFIELD    MOSUNNY   67  42  40 W12       30.06F
TAYLORVILLE    NOT AVBL
$$

ILZ033-039-045-046-055>057-062-063-061600-
EAST-CENTRAL ILLINOIS

CITY           SKY/WX    TMP DP  RH WIND       PRES   REMARKS
CHAMPAIGN      CLOUDY    63  42  46 W9        30.06S
MATTOON        SUNNY     62  43  49 NW10      30.05S
$$

ILZ079-100>102-061600-
SOUTHWEST ILLINOIS

CITY           SKY/WX    TMP DP  RH WIND       PRES   REMARKS
ALTON          SUNNY     64  43  45 NW10      30.09S
BELLEVILLE     SUNNY     66  44  44 NW8       30.07S
CAHOKIA*       SUNNY     65  45  48 W6        30.08F
SPARTA*        SUNNY     62  47  57 W3        30.10S
$$

ILZ064>066-069>071-074>076-080>082-084>086-088>090-092>094-061600-
SOUTH-CENTRAL ILLINOIS

CITY           SKY/WX    TMP DP  RH WIND       PRES   REMARKS
CARBONDALE     SUNNY     64  45  49 NW7       30.08F
MARION         SUNNY     63  46  55 W9        30.09S
MT. VERNON     SUNNY     63  48  59 W7        30.09S
SALEM*         SUNNY     64  47  52 NW6       30.08S
$$

ILZ067-068-072-073-078-083-087-091-061600-
SOUTHEAST ILLINOIS

CITY           SKY/WX    TMP DP  RH WIND       PRES   REMARKS
LAWRENCEVILLE  SUNNY     64  49  57 NW7       30.06S
FLORA*         SUNNY     66  47  50 NW9       30.07S
HARRISBURG*    SUNNY     65  50  57 NW5       30.08S
ROBINSON*      SUNNY     62  49  61 NW5       30.07R
$$

ABBREVIATIONS USED IN REMARKS
   TC - TEMPERATURE IN CELSIUS
  WCI - WIND CHILL INDEX
   HX - HEAT INDEX
  VSB - VISIBILITY
$$





USA.gov is the U.S. government's official web portal to all federal, state and local government web resources and services.